Flag for Canada Weather past 2 weeks in Newmarket, Ontario, Canada

Now
45 °F

Sunny.


Feels Like: 40 °F
Forecast: 31 / 47 °F
Wind: 8 mph from Southeast

Location: Borden


UV Index: 3 (Moderate)

Visibility: 9 mi


Pressure: 30.39 "Hg

Humidity: 53%

Dew point: 28 °F

Location of NewmarketLocation

Historic Weather in Newmarket

°F

Newmarket temperature yesterday

Maximum temperature yesterday: 37 °F (at 3:00 PM)
Minimum temperature yesterday: 18 °F (at 4:00 AM)
Average temperature yesterday: 28 °F

Past Weeks' High & Low Weather Summary

 TemperatureHumidityPressure
High68 °F (Apr 13, 2:00 PM)100% (Apr 4, 12:00 PM)30.58 "Hg (Apr 4, 12:00 PM)
Low18 °F (Apr 3, 5:00 AM)31% (Apr 11, 1:00 PM)29.36 "Hg (Apr 8, 4:55 AM)
Average39 °F74%29.93 "Hg
* Reported Apr 2 8:00 PM — Apr 17 8:00 PM, Newmarket, Weather by CustomWeather, © 2014

Note: Actual official high and low records may vary slightly from our data, if they occured in-between our weather recording intervals... More about our weather records

Advertising

Historic Weather Conditions — Data for Previous 24 hours

 ConditionsComfort  
Time TempWeatherWind HumidityBarometerVisibility
8:00 PM
Apr 17
45 °FSunny.8 mph53%30.39 "Hg9 mi
7:00 PM46 °FSunny.13 mph46%30.39 "Hg9 mi
6:00 PM48 °FSunny.16 mph43%30.39 "Hg9 mi
5:00 PM48 °FSunny.18 mph43%30.40 "Hg9 mi
4:00 PM46 °FPassing clouds.15 mph43%30.42 "Hg9 mi
3:00 PM46 °FSunny.15 mph43%30.45 "Hg9 mi
2:00 PM45 °FSunny.20 mph46%30.46 "Hg9 mi
1:00 PM45 °FSunny.23 mph39%30.46 "Hg9 mi
12:00 PM43 °FPassing clouds.18 mph39%30.51 "Hg9 mi
11:00 AM41 °FSunny.18 mph42%30.53 "Hg9 mi
10:00 AM37 °FSunny.20 mph52%30.56 "Hg9 mi
9:00 AM36 °FSunny.16 mph56%30.56 "Hg9 mi
8:00 AM32 °FSunny.12 mph64%30.58 "Hg9 mi
7:00 AM28 °FClear.6 mph74%30.56 "Hg9 mi
6:00 AM28 °FClear.7 mph80%30.55 "Hg9 mi
5:00 AM28 °FClear.7 mph86%30.55 "Hg9 mi
4:00 AM28 °FClear.9 mph86%30.55 "Hg9 mi
3:00 AM28 °FClear.8 mph86%30.54 "Hg9 mi
2:00 AM23 °FClear.2 mph93%30.55 "Hg9 mi
1:00 AM25 °FClear.2 mph86%30.55 "Hg9 mi
12:00 AM23 °FClear.5 mph93%30.54 "Hg9 mi
11:00 PM
Apr 16
27 °FClear.No wind80%30.55 "Hg9 mi
10:00 PM28 °FClear.No wind69%30.55 "Hg9 mi
9:00 PM30 °FSunny.6 mph69%30.53 "Hg9 mi
Weather by CustomWeather, © 2014

See weather overview